Wind_Speed
13 14 16 18 20 21 21 21 21 21 20 19 20 20 19 18 17 18 18 18 17 16 16 15 14 14 13 12 12 11 11 10 10 10 10 11 11 12 12 13 14 14 14 15 15 15 16 16 16
14 15 16 18 18 19 20 21 21 21 20 20 20 19 19 18 18 18 18 18 18 18 17 16 15 14 13 13 12 12 11 11 11 11 11 12 13 13 13 14 14 14 15 15 16 16 16 16 16
16 16 17 17 18 18 20 21 21 21 20 20 20 19 19 18 18 18 18 18 18 18 18 17 16 15 13 13 12 12 11 11 11 12 12 13 13 13 13 13 14 14 15 15 16 16 16 17 17
18 18 18 18 17 19 21 22 21 21 21 21 20 19 19 18 18 18 18 17 17 18 18 17 15 14 13 13 12 12 12 12 12 12 12 13 13 13 13 13 14 15 15 16 16 17 17 18 18
21 20 19 18 19 21 22 22 22 22 21 21 21 20 20 19 18 18 18 17 17 17 17 16 15 14 13 13 12 12 12 12 12 12 12 12 12 13 14 14 15 16 16 17 17 18 18 19 20
24 22 20 19 20 21 22 22 22 22 21 21 21 20 19 18 18 18 17 17 16 16 16 15 15 14 13 12 12 11 11 11 11 12 12 13 14 14 15 16 16 17 17 18 19 19 20 20 21
26 25 22 22 22 21 21 22 22 22 21 21 21 20 19 18 17 17 17 16 16 15 15 14 14 13 12 12 12 12 12 12 12 13 14 15 15 16 16 17 18 18 19 19 20 21 21 22 22
30 28 25 24 24 22 22 22 22 22 21 21 20 19 19 18 17 16 16 15 15 15 14 14 13 13 13 12 12 12 13 13 14 15 15 16 16 17 17 18 19 19 20 20 21 22 22 23 23
33 30 27 26 26 25 25 23 22 22 22 21 19 19 19 18 17 16 15 15 15 15 14 14 14 13 13 13 13 13 14 14 15 15 15 16 16 17 18 19 20 20 21 21 22 23 24 24 24
36 32 28 29 29 28 27 25 23 23 22 21 20 19 19 19 18 17 16 15 15 15 15 14 14 14 13 13 13 14 14 15 15 16 16 17 18 18 19 20 21 22 22 23 24 24 25 25 25
39 34 33 33 32 31 29 27 25 24 23 22 21 21 21 20 19 17 17 16 16 16 15 15 14 14 14 14 14 15 15 15 16 17 18 19 19 20 21 22 23 24 24 25 25 26 26 26 27
42 38 37 36 36 34 32 29 28 26 24 24 23 23 22 21 20 19 19 18 17 17 16 15 15 15 15 15 15 15 16 16 17 18 19 20 21 22 23 24 25 25 26 26 27 27 28 28 28
45 41 41 39 39 37 35 33 30 28 28 27 25 24 24 23 22 21 20 19 19 18 17 17 16 16 16 16 16 17 17 18 19 19 21 22 23 24 25 26 26 27 28 28 29 29 29 29 30
47 45 44 43 42 41 39 36 34 31 31 30 28 26 26 25 24 23 22 21 20 20 19 18 18 18 18 18 18 19 19 20 21 21 22 24 25 26 27 28 28 29 30 30 30 30 31 31 31
49 49 48 47 46 43 42 41 37 33 34 33 31 29 28 27 26 25 25 23 23 22 21 21 20 20 20 21 21 21 22 22 23 23 24 26 27 28 29 30 30 31 31 31 32 32 32 32 33
52 52 51 49 48 46 46 42 38 37 38 36 34 32 31 29 28 27 27 26 25 25 24 23 23 23 23 23 23 24 24 25 25 26 27 28 29 30 31 31 32 32 32 33 33 33 33 34 34
55 54 52 50 50 49 50 45 40 41 41 39 37 36 34 32 31 29 29 28 28 27 26 26 25 25 25 26 26 26 26 27 28 29 29 30 31 32 32 33 33 34 34 34 34 34 34 34 34
55 54 52 50 48 50 51 48 44 45 44 42 41 39 37 35 33 33 32 31 30 30 29 28 28 28 28 28 28 28 29 29 30 31 31 32 33 33 34 34 34 35 35 34 34 34 35 35 35
52 52 52 49 48 51 53 52 49 49 49 46 44 42 40 38 37 37 35 34 33 32 31 30 30 30 30 30 30 30 31 32 32 33 33 34 35 35 35 35 35 35 35 35 35 35 35 35 36
52 53 52 51 50 53 54 53 52 51 51 48 47 45 43 41 40 39 38 37 36 35 34 33 33 32 32 32 33 33 33 33 34 34 35 36 36 36 36 36 36 36 36 36 36 36 36 36 36
54 53 51 50 50 52 54 55 53 52 52 50 48 47 45 44 42 42 41 40 39 38 37 36 36 35 35 35 35 35 35 35 35 35 36 36 36 36 37 37 37 37 36 36 36 36 36 36 37
54 49 49 50 51 52 54 57 54 52 52 51 49 48 46 45 44 44 43 42 41 40 39 39 38 38 37 37 37 37 36 36 36 37 38 38 37 37 37 38 38 38 37 37 36 36 37 37 37
51 47 48 49 51 53 54 58 57 52 52 50 49 48 47 46 45 45 44 44 43 42 41 40 40 39 38 38 38 38 38 38 39 39 39 38 38 38 38 38 38 38 37 37 37 38 38 38 38
49 48 49 50 52 56 54 57 60 53 50 47 46 46 46 46 46 46 45 45 44 43 43 42 41 40 39 39 39 39 39 38 39 39 39 39 39 39 38 39 39 38 38 38 38 38 38 39 39
53 52 52 53 55 57 52 56 60 52 47 45 44 44 45 45 45 45 45 44 43 43 42 42 42 41 41 40 40 39 39 40 39 39 39 39 39 38 39 39 39 38 38 39 39 39 38 39 39
55 55 56 55 55 54 53 55 55 49 45 44 43 43 43 43 43 43 43 43 43 43 42 42 41 41 41 40 40 40 40 40 40 40 39 39 39 39 40 39 39 39 39 39 39 38 39 40 40
56 55 52 53 54 54 54 52 49 47 44 42 41 41 42 42 42 42 42 42 42 42 42 42 41 41 41 40 40 40 40 40 40 40 40 40 40 40 40 40 39 39 39 39 39 39 40 40 41
56 53 53 54 54 54 53 51 47 43 40 39 38 38 39 40 41 41 41 41 41 41 41 41 41 41 41 40 40 40 40 40 40 40 39 39 40 40 40 40 39 39 39 39 39 40 40 40 41
56 56 55 54 54 53 52 49 42 39 38 37 36 36 36 37 37 38 39 40 40 40 40 40 40 40 40 40 40 40 39 39 40 39 39 40 40 40 40 39 39 39 39 39 40 40 40 41 42
55 56 56 55 54 53 51 47 41 39 38 36 35 35 35 35 35 36 37 37 38 39 39 39 39 39 39 39 39 39 39 39 39 39 39 39 39 39 39 39 39 39 39 40 40 41 41 42 42
Wind_Direction
226 222 218 215 215 214 213 213 216 218 219 219 220 221 222 222 221 222 223 225 226 227 229 231 233 235 238 241 245 249 253 257 260 265 268 272 276 280 282 285 288 290 292 293 294 295 297 298 298
227 223 221 218 217 215 214 216 218 218 220 221 221 222 223 223 223 223 225 225 225 227 228 230 233 235 238 241 244 247 249 254 259 264 268 272 276 279 281 284 286 289 291 292 294 295 297 298 298
229 226 224 221 218 215 215 218 218 218 218 220 221 221 222 222 222 223 224 224 225 226 228 230 232 234 236 239 243 245 248 254 260 265 269 272 275 278 281 283 286 289 291 292 293 295 296 297 298
230 228 226 223 218 217 218 220 220 221 220 220 222 222 222 223 222 224 224 224 224 225 226 227 229 230 233 237 240 244 248 254 260 264 268 271 274 277 281 284 287 289 290 291 292 294 295 296 296
230 229 227 224 221 221 220 221 223 225 223 222 223 223 224 223 222 223 223 224 223 223 222 223 225 227 230 234 239 245 249 254 259 263 267 270 273 277 282 286 289 290 291 291 292 293 294 294 295
231 230 228 225 224 224 223 222 223 224 225 223 223 223 223 222 220 220 220 220 218 218 217 218 221 224 229 232 238 242 248 253 259 263 268 272 277 280 283 286 289 291 291 292 292 293 294 294 294
232 230 228 226 227 227 227 225 223 223 224 224 222 222 219 217 216 216 216 216 213 213 214 217 220 223 228 234 238 242 249 256 261 265 270 274 278 281 284 286 289 290 291 292 292 293 294 294 294
233 230 227 227 229 229 230 228 226 224 223 224 221 220 218 216 212 212 213 214 212 211 214 218 221 226 230 235 239 247 254 260 264 267 271 275 278 282 284 286 288 289 291 292 292 293 294 294 294
233 230 228 229 230 230 231 230 228 227 225 224 220 217 217 214 212 211 212 215 215 213 216 220 225 229 234 240 246 253 259 263 266 268 272 275 279 282 284 287 289 291 292 293 293 293 294 294 294
233 231 229 230 230 230 231 231 230 229 226 223 220 218 216 215 213 212 213 216 219 219 222 226 231 234 239 246 253 259 263 266 268 271 274 277 280 283 286 289 292 293 293 294 294 294 294 294 294
233 231 230 231 231 230 230 230 231 230 228 226 223 220 218 217 216 216 217 220 223 226 229 233 235 239 246 253 258 263 266 269 271 275 277 280 283 285 288 291 292 293 294 295 295 295 294 294 293
233 231 231 232 232 231 230 230 230 230 229 228 226 224 223 222 222 221 223 225 229 232 235 238 242 247 252 258 263 267 270 274 275 278 280 283 285 287 290 291 293 294 295 296 295 295 294 294 293
232 230 231 232 233 232 231 230 230 231 231 231 229 228 228 228 228 228 228 229 231 235 239 242 247 251 256 261 265 269 273 276 277 279 281 284 286 289 291 293 293 294 294 295 295 294 294 293 293
231 231 231 231 233 233 232 230 230 230 233 234 232 230 230 232 233 233 234 235 235 238 242 246 250 255 260 264 268 270 273 276 278 280 282 285 287 290 292 293 294 294 294 294 293 293 293 292 292
230 230 230 231 233 234 234 232 231 232 234 235 235 234 233 233 235 237 238 239 241 242 244 248 252 256 261 265 269 271 274 276 279 281 283 286 288 290 291 292 293 293 293 293 293 292 292 291 291
230 230 230 231 234 234 235 234 233 234 235 236 236 236 236 236 237 239 241 243 245 246 248 250 253 257 261 265 269 272 275 278 280 282 284 286 288 289 290 290 292 292 292 292 292 291 291 291 291
230 231 231 231 233 235 236 235 233 235 236 236 237 238 238 239 240 242 244 246 247 249 251 253 256 258 262 265 268 272 275 277 280 283 285 286 288 288 289 289 291 291 291 291 291 291 290 290 291
232 233 233 232 233 236 237 236 234 236 236 236 238 239 240 241 243 245 246 247 249 251 254 256 259 261 263 266 269 271 274 276 279 282 285 287 288 288 288 288 289 290 290 290 290 290 290 290 291
234 235 235 233 234 236 237 236 233 235 237 237 238 240 241 243 244 246 248 250 251 253 255 257 259 262 264 267 269 271 274 276 279 282 285 286 286 287 287 287 288 288 289 289 289 289 290 290 290
233 234 234 234 234 236 236 236 234 235 237 238 239 240 242 243 244 246 249 251 253 255 256 258 260 263 265 267 269 271 274 277 279 282 283 284 285 285 286 286 286 287 287 288 288 289 289 289 290
232 233 234 236 236 238 238 237 235 235 237 238 240 241 243 244 245 247 249 251 252 255 257 259 260 262 265 267 269 271 274 276 278 279 280 282 283 284 284 284 285 285 286 287 287 288 289 289 290
233 234 236 237 236 237 239 240 235 236 237 239 240 242 244 246 247 248 249 251 253 255 256 258 259 261 264 266 268 270 273 275 276 277 279 281 282 282 282 283 283 284 284 285 286 287 288 289 290
232 233 236 237 238 238 237 242 236 236 238 239 242 243 244 246 247 249 251 252 253 254 256 257 259 260 263 265 268 270 272 273 274 275 277 278 279 279 280 281 281 282 284 284 285 286 287 288 290
229 231 233 235 237 238 236 241 240 235 238 240 243 244 245 246 247 249 250 252 253 253 255 256 258 260 262 265 267 268 270 271 272 273 275 276 277 278 279 279 280 281 282 283 285 286 287 288 289
225 226 228 232 234 238 237 241 243 238 238 240 242 244 246 247 248 249 250 251 252 253 255 256 258 259 261 263 265 266 268 269 270 271 273 274 276 276 277 278 279 280 282 283 284 285 286 288 289
227 228 229 232 236 240 239 241 243 243 241 241 242 243 245 247 248 249 250 251 252 253 254 255 257 258 260 261 263 265 266 267 268 270 271 272 274 275 275 277 278 279 281 282 283 284 286 287 289
226 229 231 234 238 240 241 241 241 243 242 241 242 243 244 246 248 248 250 251 252 253 253 254 256 257 258 260 262 263 264 265 267 268 269 271 272 273 275 276 277 279 280 281 282 283 286 287 288
227 229 230 231 234 239 241 241 240 241 244 244 243 243 244 245 246 248 249 250 251 252 253 253 254 256 258 259 260 261 262 264 265 266 267 269 270 272 274 274 276 277 279 280 281 284 286 287 289
225 224 227 231 235 237 240 240 239 242 243 244 244 243 243 244 245 247 248 249 250 252 253 254 255 256 257 258 259 260 261 262 264 265 267 268 270 271 272 273 275 276 278 278 280 284 285 287 289
228 228 229 230 234 238 240 240 238 240 242 244 244 244 244 244 244 245 246 248 249 250 252 253 255 256 257 257 258 259 260 262 263 265 266 267 269 271 272 272 274 275 277 278 281 283 285 287 289
Height
5841 5842 5843 5845 5847 5848 5850 5852 5852 5854 5856 5858 5860 5861 5863 5865 5868 5871 5870 5870 5872 5873 5874 5875 5877 5878 5878 5879 5880 5881 5881 5881 5882 5882 5882 5882 5882 5881 5881 5881 5880 5879 5878 5877 5877 5876 5875 5874 5873
5838 5839 5841 5842 5843 5845 5848 5848 5850 5852 5853 5855 5856 5858 5860 5862 5864 5865 5866 5867 5869 5870 5872 5873 5874 5875 5876 5877 5878 5879 5879 5880 5880 5880 5880 5880 5880 5879 5879 5878 5878 5877 5876 5875 5874 5873 5872 5871 5871
5836 5837 5838 5839 5841 5843 5844 5845 5847 5848 5850 5852 5853 5855 5857 5859 5860 5861 5863 5864 5866 5867 5869 5870 5872 5873 5874 5875 5876 5877 5877 5878 5878 5878 5878 5878 5877 5877 5877 5876 5875 5874 5874 5873 5872 5871 5870 5869 5868
5832 5834 5835 5837 5838 5839 5840 5842 5844 5845 5847 5849 5850 5852 5854 5856 5857 5858 5860 5861 5863 5864 5866 5868 5869 5870 5871 5873 5874 5874 5875 5875 5876 5876 5876 5876 5875 5875 5874 5873 5873 5872 5871 5870 5869 5868 5867 5866 5865
5828 5830 5832 5833 5834 5835 5836 5838 5840 5842 5844 5846 5847 5849 5851 5853 5854 5855 5857 5858 5860 5862 5863 5865 5866 5868 5869 5870 5871 5872 5873 5873 5873 5873 5873 5873 5873 5872 5872 5871 5870 5869 5868 5867 5866 5865 5864 5863 5862
5825 5827 5829 5830 5831 5832 5833 5834 5836 5839 5840 5842 5844 5846 5848 5850 5851 5853 5854 5855 5857 5859 5861 5862 5864 5865 5867 5868 5869 5869 5870 5871 5871 5871 5871 5870 5870 5870 5869 5868 5867 5866 5865 5864 5863 5862 5861 5860 5858
5820 5822 5824 5826 5826 5828 5830 5831 5833 5835 5837 5839 5841 5843 5845 5847 5848 5850 5851 5853 5855 5856 5858 5860 5861 5863 5864 5865 5866 5867 5867 5868 5868 5868 5868 5868 5867 5867 5866 5865 5864 5863 5862 5861 5860 5858 5857 5856 5855
5814 5817 5819 5821 5823 5824 5826 5827 5829 5831 5833 5835 5837 5840 5842 5844 5845 5847 5848 5850 5852 5854 5856 5857 5859 5860 5862 5863 5863 5864 5865 5865 5865 5865 5865 5864 5864 5863 5863 5862 5861 5860 5859 5858 5856 5855 5853 5852 5850
5808 5812 5815 5817 5818 5820 5821 5823 5825 5827 5829 5831 5834 5837 5839 5840 5843 5845 5846 5848 5850 5852 5853 5855 5856 5858 5859 5860 5861 5861 5861 5862 5862 5862 5862 5861 5861 5860 5859 5859 5857 5856 5855 5854 5852 5851 5849 5847 5846
5801 5806 5811 5811 5813 5815 5817 5819 5821 5824 5826 5828 5830 5833 5835 5837 5840 5842 5844 5845 5847 5849 5851 5852 5854 5855 5856 5857 5857 5858 5858 5858 5858 5858 5858 5858 5857 5856 5856 5855 5853 5852 5851 5849 5848 5846 5844 5843 5841
5795 5801 5803 5804 5806 5809 5811 5814 5817 5819 5822 5824 5827 5829 5831 5834 5837 5839 5841 5843 5844 5846 5848 5849 5850 5852 5853 5853 5854 5854 5855 5855 5855 5855 5854 5854 5853 5852 5852 5850 5849 5848 5846 5845 5843 5841 5840 5838 5836
5787 5792 5794 5797 5799 5802 5806 5809 5812 5815 5818 5820 5822 5825 5828 5830 5833 5836 5838 5840 5841 5843 5844 5846 5847 5848 5849 5850 5850 5851 5851 5851 5851 5851 5850 5849 5849 5848 5847 5846 5844 5843 5842 5840 5838 5836 5834 5832 5830
5777 5783 5786 5789 5792 5796 5799 5803 5806 5810 5812 5814 5817 5820 5823 5826 5829 5831 5834 5836 5838 5839 5840 5842 5843 5844 5845 5846 5846 5846 5847 5847 5847 5846 5846 5845 5844 5843 5842 5841 5839 5838 5836 5834 5833 5831 5829 5827 5825
5768 5773 5777 5780 5784 5788 5792 5796 5800 5804 5806 5808 5812 5815 5818 5821 5824 5826 5829 5831 5833 5835 5836 5837 5839 5839 5840 5841 5842 5842 5842 5842 5842 5842 5841 5840 5839 5838 5837 5835 5834 5832 5830 5829 5827 5825 5823 5821 5818
5756 5762 5767 5772 5776 5780 5784 5788 5794 5798 5799 5802 5806 5809 5812 5815 5818 5821 5823 5826 5828 5830 5831 5833 5834 5835 5836 5836 5837 5837 5837 5837 5837 5836 5836 5835 5834 5833 5831 5830 5828 5826 5824 5823 5821 5819 5817 5814 5812
5745 5751 5757 5764 5768 5772 5776 5782 5788 5790 5792 5796 5799 5802 5806 5809 5812 5815 5817 5820 5822 5824 5826 5827 5829 5830 5830 5831 5832 5832 5832 5832 5831 5831 5830 5829 5828 5827 5825 5824 5822 5820 5818 5816 5814 5812 5810 5808 5805
5734 5741 5748 5755 5759 5762 5766 5773 5780 5781 5784 5788 5792 5795 5799 5802 5805 5808 5811 5813 5815 5817 5819 5821 5823 5824 5825 5825 5826 5826 5826 5826 5825 5824 5824 5823 5822 5820 5819 5817 5815 5813 5812 5810 5808 5806 5803 5801 5798
5727 5733 5739 5746 5751 5753 5756 5763 5770 5771 5775 5780 5784 5787 5791 5795 5799 5801 5803 5806 5808 5810 5812 5814 5816 5817 5818 5818 5819 5820 5820 5819 5818 5818 5817 5816 5815 5813 5812 5810 5809 5807 5805 5803 5801 5799 5796 5794 5791
5718 5722 5728 5736 5740 5741 5745 5751 5758 5761 5765 5770 5775 5779 5783 5788 5791 5793 5796 5798 5801 5803 5805 5807 5809 5810 5810 5811 5812 5812 5812 5812 5812 5811 5810 5809 5807 5806 5804 5803 5801 5799 5798 5796 5793 5791 5789 5786 5784
5704 5710 5717 5723 5727 5730 5733 5739 5746 5751 5756 5762 5767 5771 5775 5779 5782 5785 5788 5790 5793 5795 5797 5799 5801 5802 5803 5804 5804 5804 5804 5804 5804 5803 5802 5801 5799 5798 5797 5795 5793 5792 5790 5788 5786 5784 5781 5779 5776
5692 5700 5708 5713 5717 5718 5722 5726 5735 5742 5746 5752 5757 5762 5766 5770 5774 5777 5779 5782 5784 5787 5789 5791 5792 5794 5794 5795 5795 5796 5796 5796 5796 5795 5793 5792 5791 5790 5789 5787 5786 5784 5782 5780 5778 5776 5774 5772 5769
5683 5694 5698 5701 5703 5707 5711 5713 5725 5731 5736 5742 5748 5753 5757 5761 5764 5767 5770 5773 5776 5778 5780 5782 5783 5785 5786 5786 5787 5787 5788 5788 5787 5786 5785 5784 5783 5782 5781 5779 5777 5776 5774 5772 5770 5768 5766 5764 5761
5676 5683 5686 5689 5691 5694 5698 5700 5712 5720 5726 5733 5739 5743 5747 5751 5754 5757 5760 5763 5766 5768 5770 5772 5774 5775 5776 5777 5778 5778 5779 5779 5778 5777 5776 5775 5774 5774 5772 5771 5769 5767 5766 5764 5762 5760 5758 5755 5753
5663 5668 5672 5674 5677 5679 5690 5691 5697 5711 5719 5725 5730 5733 5736 5740 5744 5747 5750 5753 5756 5758 5760 5762 5764 5766 5767 5767 5768 5769 5769 5769 5768 5768 5767 5766 5766 5765 5764 5762 5761 5759 5757 5756 5754 5752 5750 5747 5745
5647 5654 5658 5660 5661 5668 5681 5679 5686 5702 5711 5716 5720 5722 5725 5729 5733 5736 5739 5742 5745 5748 5750 5752 5754 5756 5757 5758 5758 5759 5759 5759 5759 5759 5758 5757 5757 5756 5755 5753 5752 5751 5749 5747 5745 5743 5741 5739 5736
5636 5642 5647 5651 5655 5663 5667 5668 5681 5691 5699 5704 5709 5712 5715 5719 5722 5726 5729 5731 5734 5737 5739 5742 5744 5745 5746 5747 5748 5749 5749 5749 5749 5749 5749 5748 5748 5747 5746 5745 5743 5742 5740 5739 5737 5735 5732 5730 5727
5625 5629 5639 5643 5646 5650 5653 5662 5672 5679 5686 5693 5698 5702 5705 5708 5712 5715 5718 5721 5723 5726 5729 5731 5733 5735 5736 5737 5738 5738 5739 5739 5739 5739 5739 5739 5738 5737 5737 5736 5735 5733 5732 5730 5728 5726 5724 5721 5719
5614 5622 5625 5628 5633 5637 5643 5651 5663 5672 5677 5683 5687 5691 5694 5698 5701 5704 5707 5710 5713 5715 5718 5720 5722 5724 5726 5727 5727 5728 5729 5729 5729 5729 5729 5729 5729 5728 5727 5726 5725 5724 5723 5721 5719 5717 5715 5712 5710
5601 5607 5611 5618 5623 5628 5634 5645 5657 5663 5667 5672 5677 5680 5684 5687 5691 5694 5696 5699 5702 5704 5707 5709 5711 5713 5715 5716 5717 5718 5719 5719 5719 5719 5720 5719 5719 5718 5718 5717 5716 5715 5713 5712 5710 5708 5706 5703 5700
5589 5595 5602 5608 5613 5619 5625 5638 5647 5653 5657 5661 5665 5670 5673 5677 5680 5683 5686 5689 5691 5694 5696 5698 5700 5702 5704 5705 5706 5707 5708 5709 5709 5710 5710 5709 5709 5708 5708 5707 5707 5705 5704 5702 5701 5699 5696 5694 5691